Location: Catacaguana
(10.4120°N, 66.7591°W)
Time: 04:28:32
(UTC+00:00)

CZ-4B R/B - Pass Details

Date: 27 May 2022
Orbit: 703 x 801 km, 98.9° (Epoch: 24 June)

Event Time Altitude Azimuth Distance (km) Brightness Sun altitude
Rises 08:19:30 0° 21° (NNE) 3,288 7.5 -24.1°
Reaches altitude 10° 08:21:53 10° 26° (NNE) 2,365 6.8 -23.6°
Maximum altitude 08:26:58 52° 102° (ESE) 991 4.3 -22.5°
Enters shadow 08:31:26 13° 176° (S) 2,129 5.6 -21.5°
